Home   Weather   San Pedro Sula   Past weeks

Flag for Honduras Past Weather in San Pedro Sula, Honduras — Yesterday and Last 2 Weeks

Now
81 °F

Passing clouds.


Feels Like: 83 °F
Forecast: 64 / 87 °F
Wind: 5 mph from Northeast

Location: La Mesa San Pedro Sula

Current Time: Jan 24, 2017 at 1:39:31 pm

Latest Report: Jan 24, 2017 at 12:00 pm


Visibility: N/A

Pressure: 30.01 "Hg

Humidity: 66%

Dew Point: 68 °F

Location of San Pedro SulaLocation

Past Weather in San Pedro Sula — Graph

°F

San Pedro Sula Temperature Yesterday

Maximum temperature yesterday: 84 °F (at 12:00 pm)
Minimum temperature yesterday: 68 °F (at 4:00 am)
Average temperature yesterday: 76 °F

High & Low Weather Summary for the Past Weeks

 TemperatureHumidityPressure
High95 °F (Jan 22, 3:00 pm)100% (Jan 9, 12:00 pm)30.30 "Hg (Jan 9, 12:00 pm)
Low59 °F (Jan 21, 3:00 am)41% (Jan 21, 4:00 pm)29.71 "Hg (Jan 22, 2:00 pm)
Average76 °F87%29.99 "Hg
* Reported Jan 9 12:00 pm — Jan 24 12:00 pm, San Pedro Sula, Weather by CustomWeather, © 2017

Note: Actual official high and low records may vary slightly from our data, if they occured in-between our weather recording intervals... More about our weather records

Advertising

San Pedro Sula Weather History for the Previous 24 Hours

Scroll right to see more
 ConditionsComfort  
Time TempWeatherWind HumidityBarometerVisibility
12:00 pm
Tue, Jan 24
81 °FPassing clouds.5 mph66%30.01 "HgN/A
11:00 am81 °FPassing clouds.2 mph70%30.04 "HgN/A
10:00 am77 °FPassing clouds.5 mph69%30.07 "HgN/A
9:00 am72 °FPassing clouds.3 mph83%30.07 "HgN/A
8:00 am66 °FScattered clouds.8 mph94%30.04 "HgN/A
7:00 am64 °FPartly sunny.No wind100%30.04 "HgN/A
6:00 am64 °FClear.2 mph100%30.01 "Hg10 mi
5:00 am64 °FClear.2 mph100%30.01 "Hg10 mi
4:00 am64 °FClear.No wind100%30.01 "Hg10 mi
3:00 am66 °FClear.2 mph100%29.98 "HgN/A
2:00 am66 °FClear.No wind100%30.01 "HgN/A
1:00 am66 °FClear.No wind100%30.01 "HgN/A
12:00 am68 °FClear.2 mph100%30.01 "HgN/A
11:00 pm
Mon, Jan 23
68 °FClear.2 mph100%30.01 "HgN/A
10:00 pm70 °FClear.6 mph100%30.01 "HgN/A
9:00 pm70 °FClear.5 mph100%30.01 "HgN/A
8:00 pm79 °FClear.5 mph74%29.98 "HgN/A
7:00 pm73 °FClear.2 mph89%29.98 "HgN/A
6:00 pm77 °FPassing clouds.5 mph83%29.95 "HgN/A
5:00 pm81 °FPassing clouds.7 mph74%29.92 "HgN/A
4:00 pm82 °FPassing clouds.9 mph70%29.92 "HgN/A
3:00 pm84 °FScattered clouds.9 mph62%29.92 "HgN/A
2:00 pm84 °FScattered clouds.9 mph62%29.92 "HgN/A
1:00 pm84 °FScattered clouds.7 mph62%29.95 "HgN/A
Weather by CustomWeather, © 2017

See weather overviewHow to use our weather pages